Starlink 30039

operational
NORAD ID: 57468 Int'l Des: 2023-107 Owner: SPXS Country: US Constellation: starlink
LEOCIRCULAR

Starlink 30039について

説明を読み込み中...

リアルタイム位置

3D地球を読み込み中...

次回通過

高度履歴

Altitude vs Time

uPlot chart will show altitude changes over time

軌道要素

1 57468U 23107M 25352.57885014 .00002018 00000-0 16442-3 0 9999
2 57468 43.0047 59.5768 0001418 267.3387 92.7293 15.02531331132912
Epoch: Dec 18, 2025 • Age: 8 hours

現在のステータス

高度 563.2 km
速度 7.59 km/s
衛星直下点 43.16°N, 86.99°E
打ち上げ日 Jul 28, 2023
運用期間 2.3 years
タイプ internet

技術仕様

分類 Payload
質量 730.00 kg
乾燥質量 700.00 kg
総質量 730.00 kg
長さ 0.30 m
直径 4.10 m
スパン 29.00 m
形状 Box + pan
製造者 SPXS
バスタイプ Starlink V2M
フェーズステータス In Orbit
所有者/国 SPXS/US

大規模コンステレーション

Loading constellations...